Back to catalog

STARLINK-36239

AliveCommunicationsVLEO
NORAD 67196·PAYLOAD·🇺🇸 United States

Launched Dec 17, 2025 from Vandenberg Space Force Base

Loading…

Next Passes (next 24 hours)

TLE

FreshSource: CelesTrak SupGP

Epoch: Sep 14, 2026, 21:34 UTC

1 67196C 25304E   26257.89909722  .00031407  00000+0  26315-2 0  2571
2 67196  70.0010  57.5726 0003225 269.0324  30.3390 14.98321668    16

Track STARLINK-36239 in real time with AllMySat

Download on the App Store